Location: ????????
(37.6846°N, 24.0673°E)
Time: 14:54:51
(UTC+00:00)

NOSS 3-2 (C) - Pass Details

Date: 14 July 2020
Orbit: 798 x 1415 km, 63.4° (Epoch: 01 August)

Event Time Altitude Azimuth Distance (km) Brightness Sun altitude
Exits shadow 02:09:18 11° 204° (SSW) 2,315 4.9 -11.4°
Maximum altitude 02:14:32 75° 120° (ESE) 905 3.4 -10.6°
Drops below altitude 10° 02:20:43 10° 36° (NE) 2,703 7.2 -9.6°
Sets 02:23:28 0° 35° (NE) 3,745 8.2 -9.2°
